1512694800.3,45215,5.88,73096.8,-5.57,-39.23,-39.29,0,*5A
1512694801.56,45216,5.88,73098.8,-5.55,-39.15,-39.23,0,*54
1512694802.85,45217,5.88,73096.5,-5.57,-39.41,-39.59,0,*5B
1512694804.1,45218,5.88,73100.3,-5.55,-39.41,-39.53,0,*5C
1512694805.38,45219,5.88,73100.3,-5.57,-39.41,-39.59,0,*55
1512694806.67,45220,5.88,73102.3,-5.57,-39.41,-39.59,0,*5F
1512694807.9,45221,5.88,73102.3,-5.55,-39.35,-39.53,0,*55
1512694809.18,45222,5.88,73102.3,-5.57,-39.41,-39.59,0,*5D
1512694810.47,45223,5.88,73100.3,-5.57,-39.41,-39.59,0,*5C
1512694811.74,45224,5.88,73100.8,-5.57,-39.29,-39.41,0,*5C
1512694813.02,45225,5.88,73100.0,-5.57,-39.23,-39.41,0,*57
1512694814.3,45226,5.88,73098.5,-5.57,-39.23,-39.29,0,*5A
1512694815.56,45227,5.88,73102.5,-5.61,-38.97,-39.15,0,*5F
1512694816.82,45228,5.88,73090.8,-5.57,-38.91,-39.09,0,*5E
1512694818.06,45229,5.88,73094.0,-5.57,-39.09,-39.09,0,*5F
1512694819.3,45230,5.88,73090.3,-5.57,-39.09,-39.09,0,*57
1512694820.58,45231,5.88,73094.8,-5.57,-39.03,-39.23,0,*54
1512694821.82,45232,5.88,73090.8,-5.57,-38.85,-39.09,0,*50
1512694823.05,45233,5.88,73090.5,-5.55,-38.79,-38.97,0,*56
1512694824.25,45234,5.88,73088.5,-5.55,-38.97,-38.97,0,*51
1512694825.51,45235,5.88,73084.5,-5.57,-39.03,-39.09,0,*58
1512694826.79,45236,5.88,73086.5,-5.57,-39.23,-39.29,0,*5B
1512694828.07,45237,5.88,73086.8,-5.57,-39.23,-39.23,0,*50
1512694829.35,45238,5.88,73084.8,-5.57,-39.23,-39.41,0,*5B
1512694830.63,45239,5.88,73084.8,-5.57,-39.41,-39.41,0,*5E
1512694831.9,45240,5.88,73082.5,-5.57,-39.29,-39.41,0,*5E
1512694833.13,45241,5.88,73082.8,-5.61,-39.35,-39.47,0,*51
1512694834.39,45242,5.88,73090.0,-5.61,-39.47,-39.53,0,*52
1512694835.63,45243,5.88,73088.0,-5.61,-39.47,-39.65,0,*56
1512694836.87,45244,5.88,73090.8,-5.61,-39.47,-39.65,0,*51
1512694838.14,45245,5.88,73094.0,-5.61,-39.47,-39.71,0,*55
1512694839.37,45246,5.88,73092.3,-5.61,-39.65,-39.85,0,*5D
1512694840.66,45247,5.88,73092.8,-5.61,-39.53,-39.71,0,*52
1512694841.92,45248,5.88,73094.0,-5.63,-39.53,-39.71,0,*5F
1512694843.17,45249,5.88,73096.5,-5.61,-39.53,-39.85,0,*57
1512694844.43,45250,5.88,73092.8,-5.61,-39.53,-39.91,0,*5A
1512694845.67,45251,5.88,73092.0,-5.63,-39.65,-39.71,0,*52
1512694846.88,45252,5.88,73088.5,-5.63,-39.85,-40.03,0,*54
1512694848.15,45253,5.88,73094.3,-5.61,-39.71,-39.91,0,*59
1512694849.37,45254,5.88,73094.8,-5.63,-39.91,-40.15,0,*50
1512694850.58,45255,5.88,73094.3,-5.63,-39.91,-40.15,0,*51
1512694851.79,45256,5.88,73100.0,-5.63,-40.03,-40.15,0,*57
1512694853.05,45257,5.88,73098.5,-5.65,-39.97,-40.15,0,*53
1512694854.3,45258,5.88,73098.8,-5.65,-39.97,-40.15,0,*5C
1512694855.51,45259,5.88,73102.0,-5.67,-39.91,-40.15,0,*59
1512694856.75,45260,5.88,73098.5,-5.67,-39.91,-40.09,0,*5E
1512694858.02,45261,5.88,73102.0,-5.67,-39.79,-40.09,0,*59
1512694859.25,45262,5.88,73106.8,-5.67,-39.91,-39.97,0,*55
1512694860.5,45263,5.88,73104.3,-5.67,-39.79,-39.91,0,*54
1512694861.74,45264,5.88,73104.0,-5.67,-39.79,-39.91,0,*53
1512694863.0,45265,5.88,73104.3,-5.67,-39.79,-39.97,0,*54
1512694864.27,45266,5.88,73104.8,-5.67,-39.79,-40.09,0,*5E
1512694865.56,45267,5.88,73102.8,-5.69,-39.79,-39.97,0,*58
1512694866.82,45268,5.88,73106.8,-5.69,-39.59,-39.91,0,*53
1512694868.11,45269,5.88,73108.3,-5.69,-39.71,-39.79,0,*5E
1512694869.41,45270,5.88,73104.5,-5.69,-39.59,-39.79,0,*5C
1512694870.62,45271,5.88,73108.3,-5.71,-39.65,-39.65,0,*56
1512694871.84,45272,5.88,73106.5,-5.71,-39.65,-39.85,0,*5B
1512694873.05,45273,5.88,73102.0,-5.71,-39.65,-39.85,0,*5A
1512694874.34,45274,5.88,73102.8,-5.69,-39.79,-40.21,0,*59
1512694875.6,45275,5.88,73102.5,-5.71,-39.97,-40.21,0,*51
1512694876.83,45276,5.88,73098.5,-5.71,-39.97,-40.15,0,*55
1512694878.1,45277,5.88,73098.5,-5.73,-39.91,-40.09,0,*5D
1512694879.33,45278,5.88,73092.5,-5.73,-39.85,-40.03,0,*5D
1512694880.57,45279,5.88,73094.5,-5.73,-39.65,-39.91,0,*57
1512694881.83,45280,5.88,73092.8,-5.73,-39.65,-39.71,0,*5F
1512694883.07,45281,5.88,73096.8,-5.75,-39.71,-40.03,0,*56
1512694884.3,45282,5.88,73094.0,-5.73,-39.85,-40.03,0,*58
1512694885.51,45283,5.88,73100.3,-5.75,-39.85,-39.91,0,*5A
1512694886.77,45284,5.88,73096.5,-5.73,-39.71,-39.91,0,*50
1512694887.98,45285,5.88,73098.5,-5.75,-39.85,-40.03,0,*59
1512694889.22,45286,5.88,73098.5,-5.75,-39.71,-40.03,0,*51
1512694890.46,45287,5.88,73100.3,-5.75,-39.85,-40.09,0,*51
1512694891.7,45288,5.88,73102.0,-5.75,-39.91,-40.21,0,*51
1512694892.96,45289,5.88,73100.5,-5.73,-40.03,-40.09,0,*59
1512694894.2,45290,5.88,73100.3,-5.75,-39.91,-40.21,0,*58
1512694895.45,45291,5.88,73102.3,-5.79,-39.97,-40.29,0,*5B
1512694896.69,45292,5.88,73106.5,-5.77,-39.91,-40.15,0,*5F
1512694897.97,45293,5.88,73102.5,-5.77,-39.97,-40.29,0,*57
1512694899.21,45294,5.88,73104.8,-5.79,-39.97,-40.15,0,*51
1512694900.47,45295,5.88,73100.0,-5.77,-39.91,-40.09,0,*55
1512694901.74,45296,5.88,73102.3,-5.79,-39.79,-39.97,0,*57
1512694902.98,45297,5.88,73100.3,-5.79,-39.91,-40.09,0,*59
1512694904.25,45298,5.88,73100.8,-5.79,-39.79,-39.97,0,*59
1512694905.49,45299,5.88,73102.3,-5.79,-39.91,-40.09,0,*57
1512694906.74,45300,5.88,73100.8,-5.83,-39.97,-40.21,0,*5F
1512694907.95,45301,5.88,73100.5,-5.83,-40.03,-40.35,0,*58
1512694909.18,45302,5.88,73094.5,-5.83,-40.03,-40.41,0,*58
1512694910.43,45303,5.88,73098.3,-5.85,-40.03,-40.21,0,*59
1512694911.65,45304,5.88,73098.3,-5.83,-40.15,-40.35,0,*5A
1512694912.9,45305,5.88,73098.5,-5.85,-40.03,-40.41,0,*59
1512694914.13,45306,5.88,73096.8,-5.85,-39.85,-40.03,0,*5C
1512694915.4,45307,5.88,73096.0,-5.85,-39.79,-39.85,0,*5E
1512694916.63,45308,5.88,73098.0,-5.85,-39.65,-39.65,0,*52
1512694917.89,45309,5.88,73092.3,-5.85,-39.65,-39.79,0,*5E
1512694919.18,45310,5.88,73092.0,-5.85,-39.59,-39.79,0,*59
1512694920.44,45311,5.88,73094.8,-5.85,-39.65,-39.97,0,*57
1512694921.7,45312,5.88,73096.0,-5.85,-39.65,-39.97,0,*54
1512694922.95,45313,5.88,73092.8,-5.85,-39.65,-39.97,0,*55
1512694924.16,45314,5.88,73092.3,-5.87,-39.85,-40.03,0,*5D
1512694925.4,45315,5.88,73092.0,-5.87,-39.85,-40.21,0,*5C
1512694926.64,45316,5.88,73096.0,-5.87,-39.85,-40.09,0,*55
1512694927.86,45317,5.88,73102.5,-5.87,-39.85,-39.91,0,*5B
1512694929.09,45318,5.88,73104.0,-5.87,-39.71,-40.03,0,*5A
1512694930.37,45319,5.88,73106.0,-5.89,-39.53,-39.71,0,*5E
1512694931.61,45320,5.88,73100.8,-5.89,-39.47,-39.85,0,*5A
1512694932.84,45321,5.88,73102.5,-5.87,-39.53,-39.85,0,*50
1512694934.07,45322,5.88,73100.3,-5.89,-39.65,-39.91,0,*5D
1512694935.3,45323,5.88,73102.8,-5.87,-39.53,-40.03,0,*52
1512694936.56,45324,5.88,73106.5,-5.89,-39.71,-40.03,0,*5B
1512694937.8,45325,5.88,73106.3,-5.87,-39.71,-40.03,0,*54
1512694939.09,45326,5.88,73102.8,-5.89,-39.71,-40.09,0,*53
1512694940.32,45327,5.88,73108.5,-5.89,-39.35,-39.85,0,*58
1512694941.54,45328,5.88,73108.0,-5.87,-39.29,-39.47,0,*5A
1512694942.75,45329,5.88,73100.3,-5.87,-39.35,-39.65,0,*56
1512694944.0,45330,5.88,73092.0,-5.89,-39.03,-39.47,0,*55
1512694945.26,45331,5.88,73092.5,-5.89,-39.47,-39.53,0,*51
1512694946.51,45332,5.88,73096.8,-5.89,-39.47,-39.53,0,*52
1512694947.77,45333,5.88,73102.5,-5.89,-39.47,-39.71,0,*53
1512694948.98,45334,5.88,73098.8,-5.87,-39.85,-40.03,0,*5F
1512694950.22,45335,5.88,73098.3,-5.87,-39.71,-39.91,0,*50
1512694951.44,45336,5.88,73104.8,-5.87,-39.85,-39.91,0,*58
1512694952.65,45337,5.88,73104.0,-5.87,-39.85,-39.91,0,*59
1512694953.89,45338,5.88,73100.8,-5.87,-39.71,-39.91,0,*5D
1512694955.18,45339,5.88,73094.5,-5.89,-39.71,-39.71,0,*5C
1512694956.44,45340,5.88,73094.3,-5.89,-39.71,-39.85,0,*59
1512694957.65,45341,5.88,73096.5,-5.87,-39.85,-40.03,0,*5D
1512694958.88,45342,5.88,73098.0,-5.89,-39.85,-40.03,0,*50
1512694960.11,45343,5.88,73096.5,-5.89,-39.85,-40.03,0,*51
1512694961.35,45344,5.88,73096.8,-5.87,-40.03,-40.21,0,*58
1512694962.61,45345,5.88,73098.5,-5.89,-40.03,-40.09,0,*5D
1512694963.84,45346,5.88,73098.5,-5.89,-39.91,-39.91,0,*54
1512694965.08,45347,5.88,73096.8,-5.89,-39.85,-39.91,0,*50
1512694966.32,45348,5.88,73102.5,-5.91,-39.91,-40.09,0,*5C
1512694967.58,45349,5.88,73100.3,-5.91,-39.97,-40.09,0,*5B
1512694968.84,45350,5.88,73102.3,-5.91,-39.97,-40.09,0,*53
1512694970.1,45351,5.88,73104.5,-5.91,-39.97,-40.09,0,*52
1512694971.37,45352,5.88,73102.0,-5.91,-40.09,-40.09,0,*58
1512694972.62,45353,5.88,73104.3,-5.91,-39.97,-39.97,0,*59
1512694973.87,45354,5.88,73106.0,-5.91,-40.15,-40.29,0,*51
1512694975.12,45355,5.88,73104.5,-5.93,-40.21,-40.35,0,*58
1512694976.38,45356,5.88,73106.3,-5.93,-40.35,-40.41,0,*5D
1512694977.6,45357,5.88,73104.8,-5.91,-40.15,-40.47,0,*5A
1512694978.83,45358,5.88,73108.0,-5.95,-40.21,-40.35,0,*53
1512694980.07,45359,5.88,73108.3,-5.95,-40.15,-40.21,0,*50
1512694981.33,45360,5.88,73106.5,-5.95,-40.21,-40.21,0,*5D
1512694982.57,45361,5.88,73110.3,-5.95,-40.15,-40.21,0,*5B
1512694983.77,45362,5.88,73110.0,-5.97,-40.03,-40.03,0,*5D
1512694984.99,45363,5.88,73108.8,-5.97,-40.15,-40.15,0,*5C
1512694986.24,45364,5.88,73114.3,-5.97,-40.21,-40.41,0,*5D
1512694987.5,45365,5.88,73114.3,-5.95,-40.21,-40.41,0,*5E
1512694988.73,45366,5.88,73112.0,-5.95,-40.21,-40.35,0,*5E
1512694989.96,45367,5.88,73110.5,-5.97,-40.15,-40.21,0,*5F
1512694991.19,45368,5.88,73114.0,-5.97,-40.03,-39.97,0,*54
1512694992.39,45369,5.88,73112.0,-5.97,-39.85,-40.03,0,*56
1512694993.6,45370,5.88,73114.3,-5.97,-39.85,-39.85,0,*5E
1512694994.8,45371,5.88,73114.5,-5.97,-39.85,-39.85,0,*5F
1512694996.04,45372,5.88,73116.3,-5.97,-39.79,-39.85,0,*5F
1512694997.27,45373,5.88,73116.8,-5.99,-39.85,-39.85,0,*53
1512694998.5,45374,5.88,73114.8,-5.99,-39.85,-39.85,0,*54
1512694999.73,45375,5.88,73114.8,-5.99,-39.91,-40.03,0,*50
1512695000.96,45376,5.88,73110.8,-6.01,-39.65,-39.71,0,*51
1512695002.19,45377,5.88,73106.3,-5.99,-39.65,-39.85,0,*59
1512695003.42,45378,5.88,73104.3,-5.99,-39.85,-39.91,0,*5D
1512695004.67,45379,5.88,73108.5,-6.01,-39.53,-39.71,0,*5B
1512695005.9,45380,5.88,73108.5,-5.99,-39.85,-40.03,0,*5F
1512695007.13,45381,5.88,73110.3,-5.99,-39.85,-40.03,0,*5E
1512695008.37,45382,5.88,73110.0,-5.99,-39.85,-39.91,0,*58
1512695009.62,45383,5.88,73108.8,-5.99,-39.71,-39.91,0,*52
1512695010.86,45384,5.88,73110.0,-6.01,-39.85,-40.09,0,*53
1512695012.09,45385,5.88,73110.3,-6.01,-39.65,-39.71,0,*5D
1512695013.37,45386,5.88,73112.8,-5.99,-39.53,-39.71,0,*59
1512695014.6,45387,5.88,73108.3,-6.01,-39.47,-39.71,0,*5F
1512695015.84,45388,5.88,73102.3,-5.99,-39.47,-39.65,0,*57
1512695017.11,45389,5.88,73100.8,-5.99,-39.23,-39.41,0,*52
1512695018.36,45390,5.88,73100.3,-5.99,-39.29,-39.65,0,*56
1512695019.65,45391,5.88,73102.5,-5.99,-39.71,-39.71,0,*5F
1512695020.88,45392,5.88,73102.0,-5.99,-39.85,-40.03,0,*5C
1512695022.14,45393,5.88,73104.5,-5.99,-39.71,-39.91,0,*53
1512695023.36,45394,5.88,73106.3,-5.99,-40.03,-40.03,0,*5A
1512695024.57,45395,5.88,73106.0,-6.01,-39.91,-39.91,0,*59
1512695025.77,45396,5.88,73106.3,-6.01,-39.85,-39.85,0,*5A
1512695026.98,45397,5.88,73106.3,-6.01,-39.91,-40.03,0,*5E
1512695028.24,45398,5.88,73104.0,-5.99,-39.71,-39.85,0,*5D
1512695029.47,45399,5.88,73106.8,-6.01,-39.71,-39.91,0,*5B
1512695030.68,45400,5.88,73104.5,-6.01,-39.65,-39.85,0,*5C
1512695031.91,45401,5.88,73104.8,-5.99,-39.85,-39.85,0,*51
1512695033.14,45402,5.88,73104.8,-6.01,-39.65,-39.71,0,*55
1512695034.35,45403,5.88,73106.3,-6.01,-39.65,-39.85,0,*5F
1512695035.55,45404,5.88,73110.3,-6.01,-39.65,-39.85,0,*58
1512695036.78,45405,5.88,73110.0,-6.01,-39.65,-39.71,0,*52
1512695038.05,45406,5.88,73108.8,-6.05,-39.71,-39.79,0,*58
1512695039.32,45407,5.88,73108.3,-6.05,-39.59,-39.79,0,*53
1512695040.58,45408,5.88,73108.5,-6.05,-39.71,-39.79,0,*56
1512695041.83,45409,5.88,73112.5,-6.01,-39.53,-39.71,0,*5B
1512695043.09,45410,5.88,73110.8,-6.05,-39.53,-39.71,0,*57
1512695044.35,45411,5.88,73112.0,-6.05,-39.53,-39.79,0,*5E
1512695045.61,45412,5.88,73114.8,-6.05,-39.59,-39.79,0,*57
1512695046.85,45413,5.88,73114.8,-6.05,-39.91,-39.97,0,*52
1512695048.12,45414,5.88,73112.5,-6.05,-39.59,-39.79,0,*51
1512695049.36,45415,5.88,73114.0,-6.05,-39.71,-39.91,0,*5C
1512695050.62,45416,5.88,73110.3,-6.05,-39.71,-39.71,0,*51
1512695051.86,45417,5.88,73110.3,-6.05,-39.79,-39.91,0,*56
1512695053.12,45418,5.88,73108.3,-6.07,-40.03,-40.21,0,*5D
1512695054.37,45419,5.88,73112.0,-6.07,-39.97,-40.03,0,*5F
1512695055.61,45420,5.88,73104.0,-6.07,-39.85,-40.03,0,*56
1512695056.86,45421,5.88,73104.5,-6.07,-39.97,-40.03,0,*54
1512695058.1,45422,5.88,73106.8,-6.07,-39.85,-40.15,0,*53
1512695059.35,45423,5.88,73108.0,-6.07,-39.97,-40.03,0,*56
1512695060.61,45424,5.88,73106.5,-6.07,-39.85,-39.97,0,*51
1512695061.84,45425,5.88,73110.3,-6.09,-39.97,-40.03,0,*5E
1512695063.08,45426,5.88,73108.8,-6.09,-40.15,-40.21,0,*59
1512695064.3,45427,5.88,73112.3,-6.09,-40.15,-40.35,0,*5D
1512695065.56,45428,5.88,73110.8,-6.07,-39.85,-39.97,0,*5D
1512695066.83,45429,5.88,73110.8,-6.09,-39.79,-39.97,0,*51
1512695068.09,45430,5.88,73114.8,-6.11,-39.91,-40.09,0,*5F
1512695069.36,45431,5.88,73114.5,-6.09,-39.79,-39.97,0,*58
1512695070.57,45432,5.88,73112.8,-6.09,-39.85,-40.15,0,*5C
1512695071.78,45433,5.88,73112.0,-6.09,-39.85,-40.03,0,*5A
1512695072.99,45434,5.88,73112.3,-6.09,-39.65,-39.85,0,*53
1512695074.28,45435,5.88,73112.0,-6.11,-39.41,-39.59,0,*5C
1512695075.53,45436,5.88,73114.8,-6.09,-39.23,-39.41,0,*5B
1512695076.73,45437,5.88,73112.5,-6.09,-39.35,-39.35,0,*5E
1512695077.99,45438,5.88,73104.8,-6.09,-39.15,-39.15,0,*51
1512695079.25,45439,5.88,73104.3,-6.07,-38.79,-38.97,0,*5E
1512695080.49,45440,5.88,73100.3,-6.07,-38.85,-38.85,0,*50
1512695081.73,45441,5.88,73092.0,-6.07,-38.85,-38.85,0,*51
1512695082.98,45442,5.88,73094.0,-6.07,-38.97,-39.03,0,*5E
1512695084.24,45443,5.88,73092.3,-6.07,-39.03,-39.09,0,*59
1512695085.48,45444,5.88,73086.8,-6.05,-38.91,-39.09,0,*56
1512695086.73,45445,5.88,73088.0,-6.07,-38.97,-39.03,0,*59
1512695087.95,45446,5.88,73084.5,-6.05,-38.97,-39.15,0,*5F
1512695089.19,45447,5.88,73084.8,-6.05,-38.91,-39.09,0,*55
1512695090.39,45448,5.88,73084.0,-6.05,-38.97,-39.09,0,*5C
1512695091.6,45449,5.88,73084.3,-6.05,-38.97,-39.09,0,*5D
1512695092.85,45450,5.88,73082.8,-6.01,-39.23,-39.29,0,*5D
1512695094.1,45451,5.88,73080.3,-6.01,-39.23,-39.29,0,*5C
1512695095.32,45452,5.88,73080.5,-6.01,-39.23,-39.47,0,*57
1512695096.55,45453,5.88,73086.5,-6.01,-39.09,-39.29,0,*56
1512695097.8,45454,5.88,73078.8,-6.01,-39.03,-39.29,0,*5B
1512695099.06,45455,5.88,73084.3,-6.01,-39.03,-39.29,0,*5A
1512695100.31,45456,5.88,73080.8,-6.01,-39.03,-39.23,0,*53
1512695101.54,45457,5.88,73086.8,-6.01,-39.09,-39.29,0,*52
1512695102.77,45458,5.88,73086.5,-6.01,-39.09,-39.53,0,*50
1512695103.99,45459,5.88,73086.0,-6.01,-39.41,-39.47,0,*58
1512695105.22,45460,5.88,73090.8,-6.01,-39.09,-39.41,0,*58
1512695106.47,45461,5.88,73090.8,-6.01,-39.03,-39.29,0,*5D
1512695107.72,45462,5.88,73090.8,-6.01,-39.03,-39.41,0,*50
1512695108.96,45463,5.88,73090.0,-5.99,-39.29,-39.47,0,*5D
1512695110.21,45464,5.88,73092.8,-6.01,-39.29,-39.41,0,*5E
1512695111.44,45465,5.88,73092.8,-6.01,-39.09,-39.41,0,*5D
1512695112.69,45466,5.88,73092.8,-6.01,-39.03,-39.29,0,*5A
1512695113.97,45467,5.88,73094.3,-5.99,-39.03,-39.29,0,*59
1512695115.24,45468,5.88,73098.8,-5.99,-39.03,-39.41,0,*58
1512695116.44,45469,5.88,73098.3,-6.01,-39.09,-39.47,0,*57
1512695117.68,45470,5.88,73096.8,-6.01,-39.41,-39.65,0,*53
1512695118.95,45471,5.88,73096.0,-5.99,-39.29,-39.53,0,*5B
1512695120.2,45472,5.88,73098.0,-5.99,-39.09,-39.29,0,*57
1512695121.46,45473,5.88,73096.0,-5.99,-38.91,-39.09,0,*54
1512695122.73,45474,5.88,73094.0,-5.99,-38.91,-39.29,0,*51
1512695124.0,45475,5.88,73094.0,-5.99,-38.91,-39.23,0,*5A
1512695125.28,45476,5.88,73092.8,-5.99,-38.91,-39.29,0,*53
1512695126.53,45477,5.88,73092.8,-5.99,-39.09,-39.41,0,*5C
1512695127.79,45478,5.88,73096.5,-5.99,-39.23,-39.65,0,*5D
1512695129.02,45479,5.88,73100.3,-5.97,-39.35,-39.59,0,*5A
1512695130.25,45480,5.88,73096.0,-5.99,-39.47,-39.65,0,*58
1512695131.52,45481,5.88,73098.0,-5.99,-39.41,-39.53,0,*5A
1512695132.78,45482,5.88,73096.5,-5.99,-39.41,-39.65,0,*5C
1512695134.04,45483,5.88,73094.3,-5.99,-39.41,-39.65,0,*5D
1512695135.31,45484,5.88,73092.8,-5.99,-39.41,-39.53,0,*5F
1512695136.57,45485,5.88,73098.5,-5.99,-39.41,-39.65,0,*5B
1512695137.8,45486,5.88,73094.8,-5.99,-39.47,-39.65,0,*5E
1512695139.01,45487,5.88,73094.8,-6.01,-39.47,-39.65,0,*5D
1512695140.27,45488,5.88,73098.5,-5.99,-39.41,-39.65,0,*56
1512695141.54,45489,5.88,73092.8,-5.99,-39.41,-39.53,0,*52
1512695142.81,45490,5.88,73096.5,-5.99,-39.29,-39.53,0,*54
1512695144.09,45491,5.88,73094.8,-5.99,-39.41,-39.53,0,*5B
1512695145.32,45492,5.88,73092.3,-5.99,-39.47,-39.65,0,*5B
1512695146.58,45493,5.88,73088.3,-5.99,-39.41,-39.65,0,*5C
1512695147.85,45494,5.88,73084.8,-5.99,-39.03,-39.23,0,*5F
1512695149.13,45495,5.88,73088.0,-5.99,-39.03,-39.23,0,*5E
1512695150.38,45496,5.88,73086.0,-5.99,-39.03,-39.09,0,*55
1512695151.63,45497,5.88,73088.0,-5.99,-38.91,-39.09,0,*5E
1512695152.86,45498,5.88,73090.0,-5.97,-38.85,-39.23,0,*52
1512695154.11,45499,5.88,73092.0,-5.97,-39.23,-39.41,0,*5A
1512695155.34,45500,5.88,73082.5,-5.97,-38.97,-39.15,0,*54
1512695156.59,45501,5.88,73084.0,-5.97,-39.15,-39.41,0,*5F
1512695157.79,45502,5.88,73082.5,-5.97,-39.35,-39.47,0,*58
1512695159.02,45503,5.88,73088.8,-5.95,-39.23,-39.47,0,*5C
1512695160.21,45504,5.88,73090.3,-5.97,-38.97,-39.35,0,*52
1512695161.44,45505,5.88,73092.0,-5.97,-38.79,-38.97,0,*5A
1512695162.67,45506,5.88,73086.8,-5.95,-39.03,-39.35,0,*5E
1512695163.92,45507,5.88,73084.3,-5.97,-39.03,-39.23,0,*5A
1512695165.16,45508,5.88,73086.3,-5.95,-38.79,-38.85,0,*56
1512695166.39,45509,5.88,73094.3,-5.97,-38.79,-38.97,0,*56
1512695167.63,45510,5.88,73096.5,-5.95,-38.85,-39.15,0,*54
1512695168.83,45511,5.88,73088.8,-5.95,-38.97,-39.35,0,*54
1512695170.07,45512,5.88,73086.3,-5.95,-38.85,-39.03,0,*51
1512695171.28,45513,5.88,73090.5,-5.95,-38.85,-38.97,0,*5C
1512695172.49,45514,5.88,73092.3,-5.97,-38.61,-38.85,0,*50
1512695173.72,45515,5.88,73090.3,-5.95,-38.67,-38.85,0,*55
1512695174.96,45516,5.88,73074.0,-5.95,-38.67,-38.85,0,*56
1512695176.24,45517,5.88,73086.5,-5.93,-38.79,-39.03,0,*51
1512695177.5,45518,5.88,73088.0,-5.93,-38.97,-39.23,0,*5C
1512695178.78,45519,5.88,73090.0,-5.93,-39.03,-39.41,0,*55
1512695180.04,45520,5.88,73100.0,-5.93,-39.15,-39.47,0,*5E
1512695181.29,45521,5.88,73098.8,-5.93,-38.97,-39.23,0,*56
1512695182.52,45522,5.88,73098.8,-5.91,-39.03,-39.35,0,*5C
1512695183.78,45523,5.88,73098.3,-5.91,-39.15,-39.53,0,*5A
1512695185.04,45524,5.88,73100.8,-5.91,-39.41,-39.59,0,*56
1512695186.33,45525,5.88,73094.8,-5.93,-39.41,-39.59,0,*55
1512695187.59,45526,5.88,73086.5,-5.93,-39.15,-39.47,0,*58
1512695188.82,45527,5.88,73102.8,-5.91,-38.97,-39.15,0,*57
1512695190.05,45528,5.88,73102.5,-5.91,-38.61,-38.91,0,*5C
1512695191.32,45529,5.88,73096.8,-5.93,-38.61,-38.79,0,*59
1512695192.55,45530,5.88,73104.5,-5.91,-38.79,-38.97,0,*5A
1512695193.79,45531,5.88,73100.3,-5.91,-38.79,-38.97,0,*5B
1512695194.99,45532,5.88,73100.3,-5.91,-38.73,-38.97,0,*52
1512695196.25,45533,5.88,73096.3,-5.91,-38.91,-39.15,0,*54
1512695197.48,45534,5.88,73098.0,-5.91,-38.97,-39.15,0,*55
1512695198.7,45535,5.88,73100.5,-5.91,-38.97,-39.29,0,*5B
1512695199.94,45536,5.88,73104.3,-5.91,-39.15,-39.35,0,*5E
1512695201.2,45537,5.88,73098.5,-5.91,-39.15,-39.41,0,*5C
1512695202.45,45538,5.88,73090.3,-5.89,-39.23,-39.35,0,*5C
1512695203.68,45539,5.88,73100.5,-5.89,-39.09,-39.35,0,*55
1512695204.91,45540,5.88,73104.8,-5.89,-39.09,-39.35,0,*5B
1512695206.15,45541,5.88,73106.5,-5.89,-39.29,-39.35,0,*58
1512695207.43,45542,5.88,73100.5,-5.89,-39.29,-39.53,0,*5B
1512695208.68,45543,5.88,73104.0,-5.89,-39.35,-39.53,0,*57
1512695209.93,45544,5.88,73104.3,-5.89,-39.29,-39.47,0,*58
1512695211.19,45545,5.88,73104.3,-5.89,-38.91,-39.09,0,*51
1512695212.42,45546,5.88,73098.5,-5.87,-38.85,-39.03,0,*53
1512695213.65,45547,5.88,73100.0,-5.87,-39.29,-39.35,0,*50
1512695214.89,45548,5.88,73106.3,-5.89,-39.23,-39.35,0,*5B
1512695216.15,45549,5.88,73108.3,-5.89,-39.23,-39.47,0,*5F
1512695217.37,45550,5.88,73114.5,-5.89,-39.35,-39.47,0,*50
1512695218.64,45551,5.88,73114.3,-5.89,-39.53,-39.53,0,*54
1512695219.89,45552,5.88,73112.3,-5.89,-39.29,-39.47,0,*5F
1512695221.17,45553,5.88,73108.5,-5.89,-38.91,-39.03,0,*5C
1512695222.41,45554,5.88,73108.3,-5.87,-38.85,-38.91,0,*5A
1512695223.67,45555,5.88,73108.8,-5.89,-38.85,-38.91,0,*55
1512695224.93,45556,5.88,73104.8,-5.89,-38.85,-38.91,0,*56
1512695226.2,45557,5.88,73102.8,-5.89,-38.85,-38.91,0,*57
1512695227.43,45558,5.88,73104.5,-5.87,-38.85,-39.03,0,*5C
1512695228.67,45559,5.88,73100.5,-5.87,-38.85,-38.91,0,*57
1512695229.92,45560,5.88,73098.5,-5.87,-38.91,-39.03,0,*52
1512695231.16,45561,5.88,73100.3,-5.87,-38.85,-39.03,0,*56
1512695232.38,45562,5.88,73096.8,-5.87,-38.73,-39.03,0,*5C
1512695233.62,45563,5.88,73094.0,-5.87,-38.85,-39.03,0,*54
1512695234.88,45564,5.88,73096.8,-5.85,-38.79,-38.85,0,*5D
1512695236.16,45565,5.88,73096.0,-5.85,-38.79,-39.03,0,*53
1512695237.43,45566,5.88,73100.5,-5.85,-39.03,-39.23,0,*5E
1512695238.65,45567,5.88,73098.0,-5.83,-38.97,-39.03,0,*57
1512695239.94,45568,5.88,73102.8,-5.85,-38.79,-38.79,0,*52
1512695241.17,45569,5.88,73098.0,-5.85,-38.85,-38.97,0,*50
1512695242.43,45570,5.88,73098.3,-5.85,-38.79,-38.85,0,*58
1512695243.69,45571,5.88,73100.8,-5.85,-38.79,-38.85,0,*59
1512695244.9,45572,5.88,73096.0,-5.83,-38.85,-38.97,0,*5C
1512695246.13,45573,5.88,73098.0,-5.83,-38.79,-38.97,0,*5E
1512695247.36,45574,5.88,73096.8,-5.83,-38.79,-38.97,0,*59
1512695248.59,45575,5.88,73100.8,-5.83,-38.79,-38.97,0,*58
1512695249.84,45576,5.88,73104.8,-5.83,-38.79,-39.03,0,*57
1512695251.1,45577,5.88,73094.3,-5.85,-38.85,-39.23,0,*51
1512695252.29,45578,5.88,73096.5,-5.83,-38.97,-39.35,0,*5C
1512695253.55,45579,5.88,73096.8,-5.83,-39.15,-39.29,0,*5B
1512695254.78,45580,5.88,73100.3,-5.83,-38.97,-39.29,0,*56
1512695256.0,45581,5.88,73096.5,-5.83,-38.97,-39.15,0,*58
1512695257.22,45582,5.88,73088.3,-5.83,-38.97,-39.23,0,*5E
1512695258.48,45583,5.88,73092.5,-5.83,-39.03,-39.29,0,*59
1512695259.73,45584,5.88,73094.3,-5.83,-39.15,-39.41,0,*57
1512695260.99,45585,5.88,73100.0,-5.83,-39.23,-39.41,0,*53
1512695262.25,45586,5.81,73098.8,-5.83,-39.15,-39.29,0,*5B
1512695263.5,45587,5.88,73098.8,-5.83,-39.15,-39.41,0,*54
1512695264.73,45588,5.88,73098.3,-5.83,-39.23,-39.47,0,*58
1512695265.99,45589,5.88,73096.3,-5.83,-39.59,-39.79,0,*59
1512695267.23,45590,5.88,73100.3,-5.83,-39.79,-40.15,0,*57
1512695268.49,45591,5.88,73102.8,-5.85,-39.79,-40.03,0,*57
1512695269.72,45592,5.88,73104.3,-5.85,-39.65,-39.85,0,*59
1512695270.97,45593,5.88,73106.3,-5.85,-39.29,-39.47,0,*5E
1512695272.2,45594,5.88,73098.5,-5.83,-39.23,-39.47,0,*55
1512695273.48,45595,5.88,73096.8,-5.85,-39.41,-39.59,0,*59
1512695274.73,45596,5.88,73098.3,-5.87,-39.53,-39.53,0,*51
1512695275.94,45597,5.88,73098.8,-5.87,-39.35,-39.65,0,*55
1512695277.17,45598,5.88,73096.0,-5.87,-39.35,-39.53,0,*5F
1512695278.44,45599,5.88,73098.0,-5.85,-39.03,-39.23,0,*5E
1512695279.73,45600,5.88,73088.8,-5.85,-39.15,-39.41,0,*5E
1512695281.01,45601,5.88,73094.8,-5.85,-39.41,-39.59,0,*57
1512695282.29,45602,5.88,73092.0,-5.85,-39.29,-39.59,0,*5A
1512695283.5,45603,5.88,73096.3,-5.87,-39.47,-39.65,0,*5E
1512695284.75,45604,5.88,73092.3,-5.85,-39.03,-39.47,0,*5B
1512695286.03,45605,5.88,73092.5,-5.85,-39.03,-39.29,0,*52
1512695287.31,45606,5.81,73088.3,-5.85,-39.15,-39.41,0,*58
1512695288.58,45607,5.88,73092.0,-5.85,-39.23,-39.41,0,*5C
1512695289.86,45608,5.88,73094.0,-5.85,-39.15,-39.41,0,*56
1512695291.09,45609,5.88,73092.0,-5.87,-39.23,-39.35,0,*53
1512695292.32,45610,5.88,73096.0,-5.87,-39.23,-39.47,0,*5E
1512695293.54,45611,5.88,73102.5,-5.87,-39.35,-39.53,0,*5D
1512695294.77,45612,5.88,73100.5,-5.87,-39.23,-39.47,0,*5C
1512695296.05,45613,5.88,73100.0,-5.89,-39.03,-39.29,0,*59
1512695297.28,45614,5.81,73096.8,-5.87,-39.23,-39.47,0,*5A
1512695298.5,45615,5.88,73098.0,-5.87,-39.29,-39.47,0,*51
1512695299.76,45616,5.88,73094.3,-5.85,-38.85,-39.15,0,*50
1512695301.0,45617,5.88,73100.3,-5.87,-39.09,-39.29,0,*59
1512695302.23,45618,5.88,73098.5,-5.87,-39.09,-39.29,0,*56
1512695303.46,45619,5.81,73098.8,-5.87,-39.29,-39.47,0,*5D
1512695304.68,45620,5.81,73098.0,-5.87,-39.23,-39.35,0,*58
1512695305.94,45621,5.88,73092.3,-5.87,-39.03,-39.23,0,*5C